Content
SEND FEEDBACK

Daily
Averages
Monthly
Summary
United States of America

LIHUE, HAWAII


Home > North America > United States > Hawaii
Elevation: 103 feet     Latitude: 21 59N     Longitude: 159 21W

WEATHER
 
SELECT A DAY
Number of Records: 219,234;   Date Range: 1/1/95 - 7/29/14
 
SHARE

PRINT THIS DATA

[ ← Previous Day ]
WEATHER ALMANAC - JANUARY 3, 2013
[ Next Day → ]
[ °C ]   °F
Weather ElementAverageHighLow
Temperature71.2 °F73.9 °F (12:53 pm)66.9 °F (5:53 am)
Dewpoint63.5 °F66.2 °F (2:25 am)62.1 °F (10:53 am)
Humidity76.8 %90 % (5:53 am)66 % (12:53 pm)
Barometer30.08 in30.13 in (8:53 pm)30.04 in (3:53 am)
Wind Speed19.1 mph24.2 mph (8:53 pm)
Wind Gust29.9 mph (2:46 pm)
Weather ElementAverage
Visibility9.4 mi
Wind DirectionNE (42.2 °)

Weather ElementTotal
Precipitation0.06 in
Cooling Degree Days5.4 (Base 65)
Growing Degree Days20.4 (Base 50)
Averaged from 37 records on January 3, 2013
WEATHER CONDITIONS BREAKOUT
WIND DIRECTION BREAKOUT
WEATHER BY HOUR - JANUARY 3, 2013
[ °C ]   °F
Local TimeTemperatureDewpointHumidityBarometerVisibilityWind DirectionWind SpeedGust SpeedPrecipitationEventsConditions
12:53 AM70.0 °F66.0 °F87 %30.07 in9.0 miNE (40°)17.3 mph0.02 inRainLight Rain
1:53 AM70.0 °F64.9 °F84 %30.06 in10.0 miNE (40°)18.4 mph0.01 inOvercast
2:04 AM69.8 °F64.4 °F83 %30.06 in10.0 miNE (40°)15.0 mphOvercast
2:25 AM69.8 °F66.2 °F88 %30.06 in10.0 miNNE (20°)16.1 mphOvercast
2:53 AM70.0 °F64.0 °F81 %30.05 in10.0 miNE (40°)18.4 mphOvercast
3:53 AM71.1 °F64.0 °F78 %30.04 in10.0 miNNE (30°)20.7 mphOvercast
4:22 AM69.8 °F64.4 °F83 %30.04 in10.0 miNE (40°)18.4 mph0.00 inOvercast
4:53 AM70.0 °F64.0 °F81 %30.04 in10.0 miNE (40°)21.9 mph28.8 mph0.00 inOvercast
5:18 AM69.8 °F64.4 °F83 %30.05 in7.0 miNE (50°)20.7 mph25.3 mph0.00 inRainLight Rain
5:53 AM66.9 °F64.0 °F90 %30.05 in8.0 miNNW (340°)15.0 mph0.01 inRainLight Rain
6:53 AM68.0 °F64.9 °F90 %30.06 in10.0 miNorth (10°)10.4 mph0.01 inOvercast
7:14 AM69.8 °F64.4 °F83 %30.07 in10.0 miNNE (30°)19.6 mphOvercast
7:53 AM71.1 °F63.0 °F75 %30.07 in10.0 miNNE (30°)19.6 mphOvercast
8:53 AM72.0 °F63.0 °F73 %30.09 in10.0 miNNE (30°)18.4 mphOvercast
9:05 AM73.4 °F64.4 °F73 %30.10 in10.0 miNE (40°)19.6 mphOvercast
9:18 AM71.6 °F62.6 °F73 %30.11 in10.0 miNE (40°)20.7 mphOvercast
9:53 AM73.0 °F63.0 °F71 %30.11 in10.0 miNE (40°)19.6 mphOvercast
10:53 AM73.0 °F62.1 °F68 %30.12 in10.0 miNNE (30°)20.7 mphOvercast
11:24 AM73.4 °F62.6 °F69 %30.11 in10.0 miNNE (30°)19.6 mphOvercast
11:50 AM73.4 °F62.6 °F69 %30.10 in10.0 miNNE (20°)18.4 mphOvercast
11:53 AM73.0 °F62.1 °F68 %30.10 in10.0 miNNE (30°)17.3 mphOvercast
12:14 PM73.4 °F62.6 °F69 %30.10 in10.0 miNE (40°)17.3 mphOvercast
12:53 PM73.9 °F62.1 °F66 %30.07 in10.0 miNNE (20°)17.3 mph24.2 mphOvercast
1:53 PM73.0 °F63.0 °F71 %30.05 in10.0 miNNE (20°)19.6 mph24.2 mphOvercast
2:13 PM73.4 °F62.6 °F69 %30.05 in10.0 miNNE (20°)20.7 mphOvercast
2:46 PM71.6 °F62.6 °F73 %30.05 in8.0 miNNE (30°)20.7 mph29.9 mphOvercast
2:53 PM71.1 °F63.0 °F75 %30.05 in8.0 miNNE (20°)19.6 mph0.00 inRainLight Rain
3:53 PM70.0 °F63.0 °F78 %30.06 in7.0 miNorth (10°)17.3 mph24.2 mph0.00 inRainLight Rain
4:53 PM71.1 °F62.1 °F73 %30.06 in8.0 miNE (40°)19.6 mph0.00 inOvercast
5:53 PM70.0 °F63.0 °F78 %30.08 in7.0 miNE (40°)15.0 mph26.5 mph0.00 inRainLight Rain
6:53 PM72.0 °F63.0 °F73 %30.09 in10.0 miNE (40°)23.0 mph0.00 inOvercast
7:53 PM72.0 °F63.0 °F73 %30.12 in10.0 miNE (50°)19.6 mphOvercast
8:53 PM71.1 °F64.0 °F78 %30.13 in6.0 miNE (40°)24.2 mph29.9 mph0.01 inRainLight Rain
9:03 PM69.8 °F64.4 °F83 %30.13 in10.0 miNE (40°)18.4 mph0.00 inOvercast
9:53 PM71.1 °F64.0 °F78 %30.13 in10.0 miNE (50°)23.0 mph0.00 inOvercast
10:53 PM72.0 °F63.0 °F73 %30.12 in10.0 miNE (40°)24.2 mph0.00 inOvercast
11:53 PM71.1 °F64.9 °F81 %30.11 in10.0 miNE (50°)20.7 mph24.2 mph0.00 inOvercast
Hourly data recorded from PHLI, located miles away from Lihue, Hawaii







STORIES FROM OUR PARTNERS